TimeEDT,TemperatureF,Dew PointF,Humidity,Sea Level PressureIn,VisibilityMPH,Wind Direction,Wind SpeedMPH,Gust SpeedMPH,PrecipitationIn,Events,Conditions,WindDirDegrees,DateUTC
12:15 AM,53.6,51.8,94,30.13,4.0,ESE,4.6,-,N/A,,Overcast,110,2013-04-30 04:15:00
12:35 AM,53.6,51.8,94,30.13,4.0,East,3.5,-,N/A,,Drizzle,90,2013-04-30 04:35:00
12:55 AM,53.6,51.8,94,30.13,3.0,East,4.6,-,N/A,,Drizzle,100,2013-04-30 04:55:00
1:15 AM,53.6,51.8,94,30.13,3.0,East,4.6,-,N/A,,Drizzle,100,2013-04-30 05:15:00
1:35 AM,53.6,51.8,94,30.13,3.0,East,8.1,-,N/A,,Light Drizzle,90,2013-04-30 05:35:00
1:55 AM,53.6,51.8,94,30.13,4.0,East,3.5,-,N/A,,Drizzle,90,2013-04-30 05:55:00
2:15 AM,53.6,51.8,94,30.13,3.0,Calm,Calm,-,N/A,,Drizzle,0,2013-04-30 06:15:00
2:35 AM,53.6,51.8,94,30.13,3.0,East,3.5,-,0.01,,Drizzle,80,2013-04-30 06:35:00
2:55 AM,53.6,51.8,94,30.12,3.0,East,5.8,-,N/A,,Drizzle,80,2013-04-30 06:55:00
3:15 AM,53.6,51.8,94,30.12,4.0,East,4.6,-,N/A,,Drizzle,90,2013-04-30 07:15:00
3:35 AM,53.6,51.8,94,30.12,5.0,East,6.9,-,N/A,,Light Drizzle,80,2013-04-30 07:35:00
3:55 AM,53.6,51.8,94,30.13,5.0,East,6.9,-,N/A,,Light Drizzle,80,2013-04-30 07:55:00
4:15 AM,53.6,51.8,94,30.13,5.0,ENE,6.9,-,N/A,,Overcast,70,2013-04-30 08:15:00
4:35 AM,53.6,51.8,94,30.13,4.0,Calm,Calm,-,N/A,,Drizzle,0,2013-04-30 08:35:00
4:55 AM,53.6,51.8,94,30.14,5.0,ENE,5.8,-,N/A,Rain,Light Rain,70,2013-04-30 08:55:00
5:15 AM,53.6,51.8,94,30.14,4.0,ENE,5.8,-,N/A,,Overcast,70,2013-04-30 09:15:00
5:35 AM,53.6,51.8,94,30.14,4.0,East,5.8,-,N/A,,Drizzle,80,2013-04-30 09:35:00
5:55 AM,53.6,51.8,94,30.15,5.0,East,5.8,-,N/A,,Light Drizzle,80,2013-04-30 09:55:00
6:15 AM,53.6,51.8,94,30.16,4.0,ENE,6.9,-,N/A,,Light Drizzle,60,2013-04-30 10:15:00
6:35 AM,53.6,51.8,94,30.17,5.0,ENE,6.9,-,N/A,,Light Drizzle,70,2013-04-30 10:35:00
6:55 AM,53.6,51.8,94,30.18,3.0,East,5.8,-,N/A,,Drizzle,80,2013-04-30 10:55:00
7:15 AM,53.6,51.8,94,30.18,2.5,East,6.9,-,N/A,,Drizzle,80,2013-04-30 11:15:00
7:35 AM,53.6,51.8,94,30.19,3.0,East,5.8,-,N/A,,Drizzle,90,2013-04-30 11:35:00
7:55 AM,53.6,51.8,94,30.19,2.5,East,8.1,-,N/A,,Drizzle,90,2013-04-30 11:55:00
8:15 AM,53.6,51.8,94,30.20,3.0,East,4.6,-,N/A,,Overcast,90,2013-04-30 12:15:00
8:35 AM,53.6,51.8,94,30.20,2.5,East,4.6,-,N/A,,Overcast,100,2013-04-30 12:35:00
8:55 AM,53.6,51.8,94,30.21,3.0,East,5.8,-,N/A,,Overcast,100,2013-04-30 12:55:00
9:15 AM,53.6,51.8,94,30.21,2.5,East,5.8,-,N/A,,Overcast,100,2013-04-30 13:15:00
9:35 AM,53.6,51.8,94,30.22,1.8,East,4.6,-,N/A,Rain,Rain,100,2013-04-30 13:35:00
9:55 AM,53.6,51.8,94,30.22,2.0,East,8.1,-,N/A,,Drizzle,100,2013-04-30 13:55:00
10:15 AM,53.6,51.8,94,30.22,2.0,East,4.6,-,N/A,,Light Drizzle,90,2013-04-30 14:15:00
10:35 AM,53.6,51.8,94,30.23,2.0,ESE,6.9,-,0.01,,Overcast,110,2013-04-30 14:35:00
10:55 AM,55.4,53.6,94,30.23,7.0,ESE,10.4,-,N/A,,Overcast,110,2013-04-30 14:55:00
11:15 AM,55.4,53.6,94,30.23,10.0,ESE,6.9,-,N/A,,Overcast,120,2013-04-30 15:15:00
11:35 AM,57.2,53.6,88,30.23,7.0,ESE,5.8,-,N/A,,Overcast,120,2013-04-30 15:35:00
11:55 AM,57.2,53.6,88,30.23,10.0,East,8.1,-,N/A,,Overcast,100,2013-04-30 15:55:00
12:15 PM,59.0,53.6,82,30.23,10.0,ESE,4.6,-,N/A,,Overcast,110,2013-04-30 16:15:00
12:35 PM,57.2,53.6,88,30.23,3.0,SE,6.9,-,N/A,Rain,Rain,130,2013-04-30 16:35:00
1:00 PM,57.2,53.6,88,30.23,10.0,ESE,6.9,-,N/A,,Overcast,110,2013-04-30 17:00:00
1:20 PM,60.8,53.6,77,30.22,10.0,East,6.9,-,N/A,,Overcast,100,2013-04-30 17:20:00
2:00 PM,60.8,53.6,77,30.23,10.0,East,6.9,-,N/A,,Overcast,100,2013-04-30 18:00:00
2:20 PM,62.6,53.6,72,30.23,10.0,East,6.9,-,N/A,,Overcast,100,2013-04-30 18:20:00
3:00 PM,60.8,53.6,77,30.23,10.0,East,4.6,-,N/A,,Overcast,90,2013-04-30 19:00:00
3:20 PM,60.8,53.6,77,30.23,7.0,Calm,Calm,-,N/A,,Overcast,0,2013-04-30 19:20:00
3:40 PM,60.8,53.6,77,30.24,10.0,Calm,Calm,-,N/A,,Overcast,0,2013-04-30 19:40:00
4:00 PM,62.6,55.4,77,30.24,10.0,East,4.6,-,N/A,,Overcast,100,2013-04-30 20:00:00
4:40 PM,60.8,55.4,82,30.25,5.0,SE,4.6,-,N/A,Rain,Rain,140,2013-04-30 20:40:00
5:00 PM,60.8,55.4,82,30.24,7.0,Calm,Calm,-,N/A,,Drizzle,0,2013-04-30 21:00:00
5:20 PM,60.8,55.4,82,30.24,7.0,Calm,Calm,-,N/A,,Overcast,0,2013-04-30 21:20:00
5:40 PM,60.8,55.4,82,30.25,10.0,Calm,Calm,-,N/A,,Overcast,0,2013-04-30 21:40:00
6:00 PM,60.8,55.4,82,30.25,10.0,Calm,Calm,-,N/A,,Overcast,0,2013-04-30 22:00:00
6:20 PM,60.8,55.4,82,30.25,10.0,Calm,Calm,-,N/A,,Overcast,0,2013-04-30 22:20:00
6:40 PM,60.8,53.6,77,30.25,10.0,Calm,Calm,-,N/A,,Overcast,0,2013-04-30 22:40:00
7:00 PM,60.8,53.6,77,30.26,10.0,Calm,Calm,-,N/A,,Overcast,0,2013-04-30 23:00:00
7:20 PM,60.8,53.6,77,30.26,10.0,Calm,Calm,-,N/A,,Overcast,0,2013-04-30 23:20:00
7:40 PM,60.8,53.6,77,30.26,10.0,Calm,Calm,-,N/A,,Overcast,0,2013-04-30 23:40:00
8:00 PM,59.0,53.6,82,30.26,10.0,Calm,Calm,-,N/A,,Mostly Cloudy,0,2013-05-01 00:00:00
8:20 PM,57.2,53.6,88,30.27,10.0,Calm,Calm,-,N/A,,Mostly Cloudy,0,2013-05-01 00:20:00
8:40 PM,57.2,53.6,88,30.27,10.0,Calm,Calm,-,N/A,,Mostly Cloudy,0,2013-05-01 00:40:00
9:00 PM,57.2,53.6,88,30.28,10.0,Calm,Calm,-,N/A,,Scattered Clouds,0,2013-05-01 01:00:00
9:20 PM,55.4,53.6,94,30.28,10.0,Calm,Calm,-,N/A,,Clear,0,2013-05-01 01:20:00
9:40 PM,55.4,51.8,88,30.29,10.0,Calm,Calm,-,N/A,,Clear,0,2013-05-01 01:40:00
10:00 PM,55.4,51.8,88,30.29,10.0,Calm,Calm,-,N/A,,Clear,0,2013-05-01 02:00:00
10:20 PM,55.4,51.8,88,30.29,10.0,Calm,Calm,-,N/A,,Mostly Cloudy,0,2013-05-01 02:20:00
10:40 PM,55.4,51.8,88,30.30,10.0,Calm,Calm,-,N/A,,Overcast,0,2013-05-01 02:40:00
11:00 PM,55.4,48.2,77,30.30,10.0,Calm,Calm,-,N/A,,Overcast,0,2013-05-01 03:00:00
11:20 PM,55.4,48.2,77,30.30,10.0,Calm,Calm,-,N/A,,Mostly Cloudy,0,2013-05-01 03:20:00
11:40 PM,53.6,46.4,77,30.31,10.0,Calm,Calm,-,N/A,,Overcast,0,2013-05-01 03:40:00